Flag for U.S.A. Weather past 2 weeks in Des Moines, Iowa, U.S.A.

Now
73 °F

Mostly cloudy.


Feels Like: 71 °F
Forecast: 66 / 83 °F
Wind: No wind

Location: Des Moines International Airport

Current Time: Jul 29, 2015 at 4:51:21 AM

Latest Report: Jul 29, 2015 at 3:54 AM


Visibility: 10 mi

Pressure: 30.00 "Hg

Humidity: 90%

Dew point: 70 °F

Location of Des MoinesLocation

Historic Weather in Des Moines — Graph

°F

Des Moines temperature yesterday

Maximum temperature yesterday: 88 °F (at 2:54 PM)
Minimum temperature yesterday: 72 °F (at 10:59 PM)
Average temperature yesterday: 77 °F

Past Weeks' High & Low Weather Summary

 TemperatureHumidityPressure
High95 °F (Jul 17, 3:54 PM)94% (Jul 28, 10:59 PM)30.01 "Hg (Jul 28, 10:59 PM)
Low63 °F (Jul 21, 4:54 AM)39% (Jul 21, 1:54 PM)29.67 "Hg (Jul 14, 3:54 AM)
Average79 °F71%29.87 "Hg
* Reported Jul 14 3:54 AM — Jul 29 3:54 AM, Des Moines, Weather by CustomWeather, © 2015

Note: Actual official high and low records may vary slightly from our data, if they occured in-between our weather recording intervals... More about our weather records

Advertising

Des Moines weather history for previous 24 hours

 ConditionsComfort  
Time TempWeatherWind HumidityBarometerVisibility
3:54 AM
Wed, Jul 29
73 °FMostly cloudy.No wind90%30.00 "Hg10 mi
2:54 AM73 °FOvercast.3 mph90%29.98 "Hg10 mi
1:54 AM72 °FMostly cloudy.No wind91%29.98 "Hg10 mi
12:54 AM72 °FLight rain. Overcast.No wind91%29.97 "Hg10 mi
11:54 PM
Tue, Jul 28
72 °FThunderstorms. Low clouds.3 mph91%29.95 "Hg10 mi
10:59 PM72 °FStrong thunderstorms. Fog.8 mph94%29.99 "Hg2 mi
9:54 PM72 °FThunderstorms. Overcast.10 mph91%29.92 "Hg10 mi
9:00 PM72 °FStrong thunderstorms. Fog.15 mph87%29.96 "Hg3 mi
8:04 PM75 °FStrong thunderstorms. Mostly cloudy.23 mph85%29.94 "Hg1 mi
7:54 PM76 °FThunderstorms. Mostly cloudy.17 mph88%29.89 "Hg7 mi
6:01 PM76 °FThunderstorms. Broken clouds.14 mph88%29.87 "Hg10 mi
4:54 PM80 °FThunderstorms. Mostly cloudy.14 mph85%29.82 "Hg5 mi
3:54 PM88 °FCloudy.3 mph63%29.86 "Hg10 mi
2:54 PM88 °FMore clouds than sun.8 mph65%29.85 "Hg10 mi
1:54 PM85 °FMore clouds than sun.16 mph75%29.84 "Hg10 mi
12:54 PM83 °FMore clouds than sun.22 mph72%29.83 "Hg10 mi
11:54 AM78 °FMore clouds than sun.14 mph84%29.84 "Hg10 mi
10:59 AM76 °FThunderstorms. Mostly cloudy.6 mph85%29.94 "Hg8 mi
9:54 AM76 °FMostly cloudy.7 mph85%29.92 "Hg10 mi
8:54 AM76 °FThunderstorms. Mostly cloudy.15 mph82%29.91 "Hg10 mi
7:54 AM76 °FBroken clouds.13 mph85%29.84 "Hg10 mi
6:54 AM75 °FPassing clouds.9 mph82%29.84 "Hg10 mi
5:54 AM74 °FPassing clouds.10 mph85%29.82 "Hg10 mi
4:54 AM74 °FPassing clouds.9 mph85%29.83 "Hg10 mi
Weather by CustomWeather, © 2015

See weather overviewHow to use our weather pages